{"data":{"norad_id":62818,"epoch":"2026-09-21T19:50:57.962400Z","epoch_age_seconds":53514,"freshness":"FRESH","line1":"1 62818U 25018N   26264.82705975  .00011566  00000+0  35291-3 0  9995","line2":"2 62818  53.1583 115.3127 0001766  58.5596 301.5579 15.34401170 93255","mean_motion":15.3440117,"eccentricity":0.0001766,"inclination_deg":53.1583,"raan_deg":115.3127,"arg_perigee_deg":58.5596,"mean_anomaly_deg":301.5579,"bstar":0.00035291,"rev_number":9325,"period_min":93.847686521251,"perigee_km":461.49167095045,"apogee_km":463.90785449505,"semimajor_km":6840.8367627227,"source":"CELESTRAK","updated_at":"2026-09-22T09:00:49.669014Z"}}